Location: Haut Kerinec
(48.0623°N, 4.4081°W)
Time: 02:05:04
(UTC+00:00)

USA 238 - Pass Details

Date: 01 June 2020
Orbit: 1014 x 1198 km, 63.4° (Epoch: 02 June)

Event Time Altitude Azimuth Distance (km) Brightness Sun altitude
Rises 22:10:55 0° 318° (NW) 3,943 8.4 -14.4°
Reaches altitude 10° 22:13:34 10° 317° (NW) 3,007 7.4 -14.6°
Maximum altitude 22:20:45 76° 234° (SW) 1,195 3.9 -15.2°
Enters shadow 22:25:56 22° 152° (SSE) 2,337 4.8 -15.5°
